• In Netherlands
  • List of Countries
  • For 7 days
  • Water Temperature
  • Satellite Maps
  • Weather Map
  • Weather Widgets
  • user-avatar
    Login

    Hourly Weather Antwerp

    Today, 24 June, Saturday

    Time Temperature Precipitation Wind Pressure Humidity
    00:00 +15°C° 0 mm 6 mps 762 mmHg 84%
    01:00 +15°C° 0 mm 6 mps 762 mmHg 85%
    02:00 +15°C° 0 mm 6 mps 762 mmHg 85%
    03:00 +15°C° 0 mm 6 mps 761 mmHg 86%
    04:00 +15°C° 0 mm 6 mps 761 mmHg 85%
    05:00 +16°C° 0 mm 6 mps 761 mmHg 83%
    06:00 +16°C° 0 mm 7 mps 761 mmHg 82%
    07:00 +17°C° 0 mm 7 mps 761 mmHg 79%
    08:00 +18°C° 0 mm 7 mps 761 mmHg 77%
    09:00 +18°C° 0 mm 7 mps 761 mmHg 74%
    10:00 +20°C° 0.1 mm 7 mps 760 mmHg 74%
    11:00 +20°C° 0.1 mm 7 mps 760 mmHg 73%
    12:00 +21°C° 0.1 mm 7 mps 760 mmHg 72%
    13:00 +21°C° 0.1 mm 7 mps 760 mmHg 74%
    14:00 +21°C° 0.1 mm 7 mps 760 mmHg 75%
    15:00 +20°C° 0.1 mm 6 mps 759 mmHg 77%
    16:00 +20°C° 0.1 mm 6 mps 759 mmHg 80%
    17:00 +19°C° 0.1 mm 6 mps 759 mmHg 82%
    18:00 +19°C° 0.1 mm 6 mps 759 mmHg 85%
    19:00 +17°C° 0.2 mm 6 mps 759 mmHg 87%
    20:00 +17°C° 0.2 mm 6 mps 759 mmHg 90%
    21:00 +17°C° 0.2 mm 5 mps 759 mmHg 92%
    22:00 +17°C° 0.2 mm 6 mps 759 mmHg 92%
    23:00 +17°C° 0.2 mm 6 mps 759 mmHg 92%

    Tomorrow, 25 June, Sunday

    Time Temperature Precipitation Wind Pressure Humidity
    00:00 +17°C° 0.2 mm 6 mps 759 mmHg 93%
    01:00 +17°C° 0.1 mm 5 mps 759 mmHg 93%
    02:00 +16°C° 0.1 mm 5 mps 759 mmHg 94%
    03:00 +16°C° 0.1 mm 5 mps 759 mmHg 94%
    04:00 +16°C° 0.1 mm 5 mps 759 mmHg 93%
    05:00 +17°C° 0.1 mm 4 mps 759 mmHg 92%
    06:00 +17°C° 0.1 mm 4 mps 759 mmHg 91%
    07:00 +17°C° 0.1 mm 5 mps 759 mmHg 87%
    08:00 +17°C° 0.1 mm 5 mps 760 mmHg 83%
    09:00 +19°C° 0.1 mm 5 mps 760 mmHg 79%
    10:00 +19°C° 0 mm 5 mps 760 mmHg 76%
    11:00 +19°C° 0 mm 5 mps 760 mmHg 73%
    12:00 +20°C° 0 mm 5 mps 760 mmHg 70%
    13:00 +20°C° 0 mm 5 mps 760 mmHg 68%
    14:00 +21°C° 0 mm 5 mps 760 mmHg 66%
    15:00 +22°C° 0 mm 6 mps 760 mmHg 63%
    16:00 +21°C° 0.1 mm 5 mps 760 mmHg 69%
    17:00 +20°C° 0.1 mm 4 mps 759 mmHg 74%
    18:00 +19°C° 0.1 mm 3 mps 759 mmHg 79%
    19:00 +19°C° 0.2 mm 3 mps 760 mmHg 83%
    20:00 +18°C° 0.2 mm 3 mps 760 mmHg 87%
    21:00 +17°C° 0.2 mm 4 mps 760 mmHg 91%
    22:00 +17°C° 0 mm 3 mps 760 mmHg 92%
    23:00 +16°C° 0 mm 3 mps 760 mmHg 94%

    Day after tomorrow, 26 June, Monday

    Time Temperature Precipitation Wind Pressure Humidity
    00:00 +16°C° 0 mm 3 mps 760 mmHg 96%
    01:00 +16°C° 0 mm 3 mps 760 mmHg 96%
    02:00 +14°C° 0 mm 3 mps 760 mmHg 95%
    03:00 +14°C° 0 mm 3 mps 761 mmHg 95%
    04:00 +16°C° 0 mm 2 mps 761 mmHg 91%
    05:00 +16°C° 0 mm 2 mps 761 mmHg 87%
    06:00 +17°C° 0 mm 2 mps 761 mmHg 83%
    07:00 +18°C° 0 mm 2 mps 761 mmHg 76%
    08:00 +19°C° 0 mm 2 mps 761 mmHg 68%
    09:00 +21°C° 0 mm 2 mps 761 mmHg 61%
    10:00 +23°C° 0 mm 1 mps 761 mmHg 58%
    11:00 +24°C° 0 mm 1 mps 761 mmHg 54%
    12:00 +25°C° 0 mm 1 mps 761 mmHg 51%
    13:00 +25°C° 0 mm 1 mps 761 mmHg 50%
    14:00 +25°C° 0 mm 2 mps 760 mmHg 50%
    15:00 +25°C° 0 mm 2 mps 760 mmHg 49%
    16:00 +25°C° 0 mm 2 mps 760 mmHg 53%
    17:00 +24°C° 0 mm 2 mps 760 mmHg 58%
    18:00 +24°C° 0 mm 2 mps 759 mmHg 62%
    19:00 +21°C° 0 mm 2 mps 759 mmHg 66%
    20:00 +20°C° 0 mm 2 mps 759 mmHg 70%
    21:00 +19°C° 0 mm 2 mps 759 mmHg 74%
    22:00 +18°C° 0 mm 3 mps 759 mmHg 76%
    23:00 +18°C° 0 mm 3 mps 759 mmHg 78%

    27 June, Tuesday

    Time Temperature Precipitation Wind Pressure Humidity
    00:00 +18°C° 0 mm 3 mps 758 mmHg 79%
    01:00 +18°C° 0 mm 3 mps 758 mmHg 81%
    02:00 +17°C° 0 mm 2 mps 757 mmHg 83%
    03:00 +17°C° 0 mm 2 mps 757 mmHg 84%
    04:00 +18°C° 0 mm 3 mps 756 mmHg 82%
    05:00 +19°C° 0 mm 3 mps 756 mmHg 79%
    06:00 +20°C° 0 mm 3 mps 756 mmHg 76%
    07:00 +21°C° 0.1 mm 3 mps 755 mmHg 74%
    08:00 +22°C° 0.1 mm 3 mps 755 mmHg 71%
    09:00 +25°C° 0.1 mm 2 mps 755 mmHg 68%
    10:00 +26°C° 0.2 mm 2 mps 754 mmHg 66%
    11:00 +27°C° 0.2 mm 2 mps 754 mmHg 64%
    12:00 +28°C° 0.2 mm 2 mps 753 mmHg 62%
    13:00 +28°C° 0.9 mm 2 mps 753 mmHg 63%
    14:00 +28°C° 0.9 mm 2 mps 752 mmHg 65%
    15:00 +28°C° 0.9 mm 2 mps 752 mmHg 66%
    16:00 +27°C° 1 mm 2 mps 751 mmHg 69%
    17:00 +27°C° 1 mm 2 mps 751 mmHg 73%
    18:00 +26°C° 1 mm 2 mps 751 mmHg 76%
    19:00 +25°C° 0.1 mm 1 mps 751 mmHg 81%
    20:00 +23°C° 0.1 mm 1 mps 750 mmHg 85%
    21:00 +22°C° 0.1 mm 1 mps 750 mmHg 90%
    22:00 +21°C° 0.1 mm 1 mps 750 mmHg 91%
    23:00 +21°C° 0.1 mm 1 mps 750 mmHg 92%

    28 June, Wednesday

    Time Temperature Precipitation Wind Pressure Humidity
    00:00 +20°C° 0.1 mm 1 mps 749 mmHg 93%
    01:00 +20°C° 0.5 mm 1 mps 749 mmHg 94%
    02:00 +20°C° 0.5 mm 1 mps 748 mmHg 94%
    03:00 +19°C° 0.5 mm 2 mps 747 mmHg 95%
    04:00 +20°C° 0.4 mm 2 mps 747 mmHg 93%
    05:00 +20°C° 0.4 mm 3 mps 747 mmHg 92%
    06:00 +21°C° 0.4 mm 3 mps 746 mmHg 91%
    07:00 +22°C° 0.7 mm 4 mps 746 mmHg 87%
    08:00 +22°C° 0.7 mm 4 mps 746 mmHg 84%
    09:00 +23°C° 0.7 mm 5 mps 746 mmHg 81%
    10:00 +25°C° 0.7 mm 5 mps 746 mmHg 77%
    11:00 +24°C° 0.7 mm 6 mps 746 mmHg 74%
    12:00 +26°C° 0.7 mm 7 mps 746 mmHg 70%
    13:00 +26°C° 0.8 mm 7 mps 746 mmHg 71%
    14:00 +26°C° 0.8 mm 6 mps 746 mmHg 71%
    15:00 +24°C° 0.8 mm 6 mps 746 mmHg 71%
    16:00 +25°C° 0.3 mm 5 mps 746 mmHg 74%
    17:00 +23°C° 0.3 mm 5 mps 746 mmHg 76%
    18:00 +23°C° 0.3 mm 4 mps 746 mmHg 78%
    19:00 +21°C° 0.1 mm 3 mps 746 mmHg 83%
    20:00 +20°C° 0.1 mm 3 mps 746 mmHg 87%
    21:00 +19°C° 0.1 mm 2 mps 746 mmHg 92%
    22:00 +18°C° 0.1 mm 2 mps 746 mmHg 93%
    23:00 +18°C° 0.1 mm 3 mps 746 mmHg 94%

    29 June, Thursday

    Time Temperature Precipitation Wind Pressure Humidity
    00:00 +17°C° 0.1 mm 3 mps 746 mmHg 95%
    01:00 +17°C° 0.1 mm 3 mps 746 mmHg 95%
    02:00 +17°C° 0.1 mm 3 mps 746 mmHg 95%
    03:00 +16°C° 0.1 mm 3 mps 746 mmHg 95%
    04:00 +15°C° 0 mm 4 mps 746 mmHg 93%
    05:00 +15°C° 0 mm 4 mps 746 mmHg 92%
    06:00 +15°C° 0 mm 5 mps 747 mmHg 90%
    07:00 +15°C° 0.1 mm 5 mps 747 mmHg 88%
    08:00 +16°C° 0.1 mm 5 mps 747 mmHg 85%
    09:00 +16°C° 0.1 mm 5 mps 748 mmHg 83%
    10:00 +16°C° 0.1 mm 5 mps 748 mmHg 80%
    11:00 +17°C° 0.1 mm 5 mps 748 mmHg 77%
    12:00 +17°C° 0.1 mm 5 mps 748 mmHg 74%
    13:00 +19°C° 0 mm 4 mps 748 mmHg 71%
    14:00 +20°C° 0 mm 4 mps 748 mmHg 67%
    15:00 +20°C° 0 mm 4 mps 748 mmHg 63%
    16:00 +20°C° 0 mm 4 mps 748 mmHg 64%
    17:00 +20°C° 0 mm 3 mps 748 mmHg 65%
    18:00 +20°C° 0 mm 3 mps 748 mmHg 66%
    19:00 +18°C° 0 mm 3 mps 749 mmHg 72%
    20:00 +17°C° 0 mm 3 mps 749 mmHg 77%
    21:00 +14°C° 0 mm 3 mps 750 mmHg 82%
    22:00 +14°C° 0 mm 3 mps 750 mmHg 84%
    23:00 +13°C° 0 mm 3 mps 749 mmHg 86%
    Show more